STARLINK-32123, 60284

Orbit data source: Space-Track

STARLINK-32123, 60284 is a payload satellite owned by SpaceX/Seattle (US) in LEO that was launched on Sun, 28 Jul 2024 UTC via an FALCON 9 launch vehicle from the Air Force Eastern Test Range (AFETR). Payload-class satellites include a variety of spacecraft equipped with specific instruments for various scientific and technological missions. These include communications satellites like Starlink; space stations such as the ISS; scientific satellites like the Hubble; Earth observation satellites from companies like Planet Labs, Umbra, and HawkEye 360; GPS; miniature CubeSats for education and research; and military/defense satellites.

Loading next visibility...
Identifier
60284, 2024-132G
Orbit
LEO
Last TLE update
11 hours ago
Origin
Manufacturer
SpaceX/Seattle
Mission
Partially operational spacecraft
Bus & Motor
STARLINK V2M, Unknown motor
Mass
730 kg wet, ~700 kg dry
Launch date (UTC)
2024-07-28 (9 months ago)
Launch vehicle
FALCON 9
Launch site
Air Force Eastern Test Range (AFETR)
Object type
Payload
Rocket body
Debris
Shape & HBR
Unknown
Radar Cross Section
Large (>1 m²)

Expand to show TLE details & history

TLE from 11 hours ago
0 STARLINK-32123
1 60284U 24132G   25129.32029700 -.00000841  00000-0 -11028-4 0  9995
2 60284  53.1622  17.4351 0001118  67.3222 292.7901 15.39636519 45080
Epoch: 2025-05-09T07:41Z
Definitive object data (Epoch: 2025-05-09T07:41:13.66Z)
Latitude
-0.00004°
Longitude
34.75002°
Altitude
447.791 km
Speed
7.645 km/s
True Right ascension
01h 09m 44s
True Declination
0° 00' 00"
Sunlit
Object was in daylight at TLE epoch
Visualization TLE readout
Latitude
53.14559°
Longitude
116.17899°
Altitude
452.989 km
Speed
7.648 km/s
Apparent Right ascension
11h 33m 23s
Apparent Declination
18° 59' 03"
Sunlit
Object is in daylight
Visualization observer readout
Local Sidereal Time
03:08:47
Azimuth
51.499° ENE
Elevation
-12.654°
Doppler factor
1
Orbital elements
Apogee altitude
448.204 km
Perigee altitude
446.677 km
Semi-major axis
6,825.577 km
Eccentricity
0.0001118
Inclination
53.1622°
RAAN
17.4351°
Arg. of periapsis
67.3222°
True anomaly
292.77829°
Mean anomaly
292.7901°
Eccentric anomaly
292.78419°
Mean motion
3.84888 °/min
BSTAR
-0.000011028
Orbital period
93.53 mins
Loading maneuver chart data...
Loading SW <> Apogee altitude chart data...
Loading historical data...
Loading historical data...
Loading historical data...
Loading historical data...
Loading historical data...
Loading historical data...
Loading historical data...

STARLINK-32123 Visibility forecast

Observer location: undefined°, undefined°

Span
Click to sort rows by Start time (UTC) header in descending order
Start Az.
Max El. time (UTC)
Max El. Az.
Max El.
End time (UTC)
End Az.
5 mins2025-05-09 20:22:54.394Z275.659° WNW2025-05-09 20:24:54.394Z316.017° NNW23.953°2025-05-09 20:27:54.394Z26.283° NE
4 mins2025-05-10 01:18:54.394Z345.868° N2025-05-10 01:19:54.394Z13.522° NNE27.825°2025-05-10 01:22:54.394Z92.957° ESE
4 mins2025-05-10 02:55:54.394Z272.483° WNW2025-05-10 02:57:54.394Z218.336° SW24.511°2025-05-10 02:59:54.394Z175.516° S
4 mins2025-05-10 18:07:54.394Z173.602° S2025-05-10 18:09:54.394Z122.177° SE23.197°2025-05-10 18:11:54.394Z80.193° E
|